Flag for U.S.A. Weather past 2 weeks in Peoria, Illinois, U.S.A.

Now
73 °F

Fog.


Feels Like: 71 °F
Forecast: 70 / 79 °F
Wind: 9 mph from Southwest

Location: Greater Peoria Regional Airport

Current Time: Aug 30, 2014 at 7:41:46 AM

Latest Report: Aug 30, 2014 at 6:54 AM


Visibility: 6 mi

Pressure: 29.86 "Hg

Humidity: 88%

Dew point: 69 °F

Location of PeoriaLocation

Historic Weather in Peoria — Graph

°F

Peoria temperature yesterday

Maximum temperature yesterday: 87 °F (at 3:54 PM)
Minimum temperature yesterday: 71 °F (at 3:54 AM)
Average temperature yesterday: 76 °F

Past Weeks' High & Low Weather Summary

 TemperatureHumidityPressure
High95 °F (Aug 25, 3:54 PM)91% (Aug 22, 9:54 AM)30.12 "Hg (Aug 22, 9:54 AM)
Low60 °F (Aug 15, 5:54 AM)47% (Aug 25, 4:54 PM)29.74 "Hg (Aug 19, 5:54 AM)
Average77 °F77%29.94 "Hg
* Reported Aug 15 5:54 AM — Aug 30 5:54 AM, Peoria, Weather by CustomWeather, © 2014

Note: Actual official high and low records may vary slightly from our data, if they occured in-between our weather recording intervals... More about our weather records

Advertising

Peoria weather history for previous 24 hours

 ConditionsComfort  
Time TempWeatherWind HumidityBarometerVisibility
5:54 AM
Aug 30
72 °FFog.9 mph91%29.84 "Hg6 mi
4:54 AM73 °FLight rain. Fog.12 mph88%29.85 "Hg6 mi
3:54 AM73 °FClear.9 mph88%29.84 "Hg7 mi
2:54 AM72 °FFog.8 mph91%29.84 "Hg5 mi
1:54 AM73 °FFog.8 mph88%29.85 "Hg6 mi
12:54 AM74 °FClear.9 mph85%29.85 "Hg8 mi
11:54 PM
Aug 29
73 °FPassing clouds.7 mph88%29.84 "Hg9 mi
10:54 PM72 °FPassing clouds.3 mph87%29.85 "Hg10 mi
9:54 PM72 °FLight rain. Mostly cloudy.6 mph87%29.87 "Hg10 mi
9:03 PM72 °FLight rain. Partly cloudy.9 mph87%29.90 "Hg7 mi
8:52 PM71 °FThundershowers. Fog.7 mph87%29.87 "Hg4 mi
7:54 PM77 °FSunny.3 mph79%29.83 "Hg10 mi
6:54 PM75 °FFog.No wind88%29.84 "Hg5 mi
5:54 PM77 °FPassing clouds.5 mph79%29.83 "Hg10 mi
4:54 PM84 °FThundershowers. Broken clouds.8 mph65%29.83 "Hg10 mi
3:54 PM87 °FPassing clouds.12 mph61%29.84 "Hg10 mi
1:54 PM86 °FSunny.9 mph63%29.89 "Hg10 mi
12:54 PM84 °FScattered clouds.10 mph67%29.91 "Hg10 mi
11:54 AM82 °FScattered clouds.12 mph72%29.93 "Hg8 mi
10:54 AM76 °FPartly sunny.No wind85%29.96 "Hg5 mi
9:54 AM75 °FLight rain. Cloudy.16 mph82%29.96 "Hg5 mi
8:54 AM76 °FOvercast.9 mph82%29.96 "Hg8 mi
7:54 AM75 °FPartly sunny.7 mph82%29.95 "Hg9 mi
Weather by CustomWeather, © 2014

See weather overviewHow to use our weather pages